Time,TemperatureF,DewpointF,PressureIn,WindDirection,WindDirectionDegrees,WindSpeedMPH,WindSpeedGustMPH,Humidity,HourlyPrecipIn,Conditions,Clouds,dailyrainin,SoftwareType,DateUTC
2013-12-13 00:00:00,49.9,43.3,30.32,NNE,19,1.1,1.1,78,0.00,CLR,OVC,0.00,WeatherDisplay:10.37,2013-12-13 05:00:00,
2013-12-13 00:01:00,49.9,43.3,30.32,NNE,21,1.1,1.1,78,0.00,CLR,OVC,0.00,WeatherDisplay:10.37,2013-12-13 05:01:00,
2013-12-13 00:02:00,49.8,43.2,30.32,NNE,17,1.1,1.1,78,0.00,CLR,OVC,0.00,WeatherDisplay:10.37,2013-12-13 05:02:00,
2013-12-13 00:07:00,49.7,43.1,30.31,NNE,26,1.1,1.1,78,0.00,CLR,OVC,0.00,WeatherDisplay:10.37,2013-12-13 05:07:00,
2013-12-13 00:12:00,49.6,43.4,30.31,ENE,57,2.3,2.3,79,0.00,CLR,OVC,0.00,WeatherDisplay:10.37,2013-12-13 05:12:00,
2013-12-13 00:17:00,49.4,43.2,30.31,NE,42,0.0,0.0,79,0.00,CLR,OVC,0.00,WeatherDisplay:10.37,2013-12-13 05:17:00,
2013-12-13 00:22:00,49.2,43.0,30.31,North,354,0.0,0.0,79,0.00,CLR,OVC,0.00,WeatherDisplay:10.37,2013-12-13 05:22:00,
2013-12-13 00:27:00,49.0,43.1,30.31,NE,37,1.1,1.1,80,0.00,CLR,OVC,0.00,WeatherDisplay:10.37,2013-12-13 05:27:00,
2013-12-13 00:32:00,48.8,42.9,30.31,ENE,70,0.0,0.0,80,0.00,CLR,OVC,0.00,WeatherDisplay:10.37,2013-12-13 05:32:00,
2013-12-13 00:37:00,48.7,42.8,30.31,NNE,16,0.0,0.0,80,0.00,CLR,OVC,0.00,WeatherDisplay:10.37,2013-12-13 05:37:00,
2013-12-13 00:42:00,48.6,43.0,30.30,North,8,1.1,0.0,81,0.00,CLR,OVC,0.00,WeatherDisplay:10.37,2013-12-13 05:42:00,
2013-12-13 00:47:00,48.3,42.7,30.30,North,8,1.1,1.1,81,0.00,CLR,OVC,0.00,WeatherDisplay:10.37,2013-12-13 05:47:00,
2013-12-13 00:52:00,48.1,42.9,30.29,NE,46,1.1,1.1,82,0.00,CLR,OVC,0.00,WeatherDisplay:10.37,2013-12-13 05:52:00,
2013-12-13 00:57:00,48.2,43.0,30.29,North,357,1.0,0.0,82,0.00,CLR,OVC,0.00,WeatherDisplay:10.37,2013-12-13 05:57:00,
2013-12-13 01:02:00,48.1,42.9,30.29,NE,54,0.0,0.0,82,0.00,CLR,OVC,0.00,WeatherDisplay:10.37,2013-12-13 06:02:00,
2013-12-13 01:07:00,47.9,42.7,30.29,NE,56,0.0,0.0,82,0.00,CLR,OVC,0.00,WeatherDisplay:10.37,2013-12-13 06:07:00,
2013-12-13 01:12:00,47.8,42.9,30.29,NE,56,0.0,0.0,83,0.00,CLR,OVC,0.00,WeatherDisplay:10.37,2013-12-13 06:12:00,
2013-12-13 01:17:00,47.7,42.8,30.29,NE,53,0.0,0.0,83,0.00,CLR,OVC,0.00,WeatherDisplay:10.37,2013-12-13 06:17:00,
2013-12-13 01:22:00,47.6,43.0,30.28,NE,54,0.0,0.0,84,0.00,CLR,OVC,0.00,WeatherDisplay:10.37,2013-12-13 06:22:00,
2013-12-13 01:27:00,47.5,42.9,30.28,NE,39,0.0,0.0,84,0.00,CLR,OVC,0.00,WeatherDisplay:10.37,2013-12-13 06:27:00,
2013-12-13 01:32:00,47.2,42.6,30.28,NE,39,0.0,0.0,84,0.00,CLR,OVC,0.00,WeatherDisplay:10.37,2013-12-13 06:32:00,
2013-12-13 01:37:00,47.1,42.8,30.28,NE,38,1.1,1.1,85,0.00,CLR,OVC,0.00,WeatherDisplay:10.37,2013-12-13 06:37:00,
2013-12-13 01:42:00,47.1,42.8,30.28,NE,38,0.0,0.0,85,0.00,CLR,OVC,0.00,WeatherDisplay:10.37,2013-12-13 06:42:00,
2013-12-13 01:47:00,46.8,42.5,30.28,NE,38,0.0,0.0,85,0.00,CLR,OVC,0.00,WeatherDisplay:10.37,2013-12-13 06:47:00,
2013-12-13 01:52:00,46.7,42.4,30.28,NE,39,0.0,0.0,85,0.00,CLR,OVC,0.00,WeatherDisplay:10.37,2013-12-13 06:52:00,
2013-12-13 01:57:00,46.7,42.7,30.28,North,354,1.1,0.0,86,0.00,CLR,OVC,0.00,WeatherDisplay:10.37,2013-12-13 06:57:00,
2013-12-13 02:02:00,46.9,43.2,30.27,ENE,66,1.1,1.1,87,0.00,CLR,OVC,0.00,WeatherDisplay:10.37,2013-12-13 07:02:00,
2013-12-13 02:07:00,47.3,43.6,30.27,NNE,17,1.1,1.1,87,0.00,CLR,OVC,0.00,WeatherDisplay:10.37,2013-12-13 07:07:00,
2013-12-13 02:12:00,47.6,43.6,30.27,NNE,22,1.1,1.1,86,0.00,CLR,OVC,0.00,WeatherDisplay:10.37,2013-12-13 07:12:00,
2013-12-13 02:17:00,47.9,43.9,30.27,NNW,340,2.3,2.3,86,0.00,CLR,OVC,0.00,WeatherDisplay:10.37,2013-12-13 07:17:00,
2013-12-13 02:22:00,48.4,44.4,30.27,NNW,341,1.1,1.1,86,0.00,CLR,OVC,0.00,WeatherDisplay:10.37,2013-12-13 07:22:00,
2013-12-13 02:27:00,48.9,44.9,30.27,NW,317,2.0,2.0,86,0.00,CLR,OVC,0.00,WeatherDisplay:10.37,2013-12-13 07:27:00,
2013-12-13 02:32:00,49.0,44.7,30.27,ENE,71,1.1,1.1,85,0.00,CLR,OVC,0.00,WeatherDisplay:10.37,2013-12-13 07:32:00,
2013-12-13 02:37:00,49.1,44.8,30.27,NW,313,1.1,1.1,85,0.00,CLR,OVC,0.00,WeatherDisplay:10.37,2013-12-13 07:37:00,
2013-12-13 02:42:00,49.1,45.1,30.27,NW,322,1.1,1.1,86,0.00,CLR,OVC,0.00,WeatherDisplay:10.37,2013-12-13 07:42:00,
2013-12-13 02:47:00,49.2,45.2,30.27,NNW,328,3.0,3.0,86,0.00,CLR,OVC,0.00,WeatherDisplay:10.37,2013-12-13 07:47:00,
2013-12-13 02:52:00,49.1,45.1,30.27,NNE,12,1.1,1.1,86,0.00,CLR,OVC,0.00,WeatherDisplay:10.37,2013-12-13 07:52:00,
2013-12-13 02:57:00,49.0,45.0,30.27,NW,323,1.1,1.1,86,0.00,CLR,OVC,0.00,WeatherDisplay:10.37,2013-12-13 07:57:00,
2013-12-13 03:02:00,49.1,45.1,30.27,NNW,331,1.1,1.1,86,0.00,CLR,OVC,0.00,WeatherDisplay:10.37,2013-12-13 08:02:00,
2013-12-13 03:07:00,49.1,45.1,30.27,WNW,292,1.1,1.1,86,0.00,CLR,OVC,0.00,WeatherDisplay:10.37,2013-12-13 08:07:00,
2013-12-13 03:12:00,48.8,44.8,30.27,NW,322,2.3,2.3,86,0.00,CLR,OVC,0.00,WeatherDisplay:10.37,2013-12-13 08:12:00,
2013-12-13 03:17:00,48.6,44.9,30.27,NE,42,1.1,1.1,87,0.00,CLR,OVC,0.00,WeatherDisplay:10.37,2013-12-13 08:17:00,
2013-12-13 03:22:00,48.6,44.9,30.27,NW,322,1.1,0.0,87,0.00,CLR,OVC,0.00,WeatherDisplay:10.37,2013-12-13 08:22:00,
2013-12-13 03:27:00,48.8,45.4,30.27,NNE,19,1.1,1.1,88,0.00,CLR,OVC,0.00,WeatherDisplay:10.37,2013-12-13 08:27:00,
2013-12-13 03:32:00,48.9,45.5,30.26,North,357,3.4,3.4,88,0.00,CLR,OVC,0.00,WeatherDisplay:10.37,2013-12-13 08:32:00,
2013-12-13 03:37:00,49.2,45.5,30.26,ENE,59,2.3,2.3,87,0.00,CLR,OVC,0.00,WeatherDisplay:10.37,2013-12-13 08:37:00,
2013-12-13 03:42:00,49.2,45.5,30.26,North,10,1.1,1.1,87,0.00,CLR,OVC,0.00,WeatherDisplay:10.37,2013-12-13 08:42:00,
2013-12-13 03:47:00,49.2,45.5,30.26,East,97,1.1,1.1,87,0.00,CLR,OVC,0.00,WeatherDisplay:10.37,2013-12-13 08:47:00,
2013-12-13 03:52:00,49.3,45.6,30.26,NNW,348,2.3,2.3,87,0.00,CLR,OVC,0.00,WeatherDisplay:10.37,2013-12-13 08:52:00,
2013-12-13 03:57:00,49.2,45.5,30.26,NW,317,1.1,1.1,87,0.00,CLR,OVC,0.00,WeatherDisplay:10.37,2013-12-13 08:57:00,
2013-12-13 04:02:00,49.1,45.4,30.26,NW,308,2.3,2.3,87,0.00,CLR,OVC,0.00,WeatherDisplay:10.37,2013-12-13 09:02:00,
2013-12-13 04:07:00,48.9,45.2,30.26,West,281,1.1,0.0,87,0.00,CLR,OVC,0.00,WeatherDisplay:10.37,2013-12-13 09:07:00,
2013-12-13 04:12:00,48.5,44.8,30.26,NNW,346,1.1,1.1,87,0.00,CLR,OVC,0.00,WeatherDisplay:10.37,2013-12-13 09:12:00,
2013-12-13 04:17:00,48.3,44.9,30.26,WNW,298,1.1,1.1,88,0.00,CLR,OVC,0.00,WeatherDisplay:10.37,2013-12-13 09:17:00,
2013-12-13 04:22:00,48.0,44.6,30.25,NNW,333,0.0,0.0,88,0.00,CLR,OVC,0.00,WeatherDisplay:10.37,2013-12-13 09:22:00,
2013-12-13 04:27:00,47.8,44.4,30.25,NNE,13,2.0,2.0,88,0.00,CLR,OVC,0.00,WeatherDisplay:10.37,2013-12-13 09:27:00,
2013-12-13 04:32:00,48.0,44.9,30.25,NNE,33,1.1,1.1,89,0.00,CLR,OVC,0.00,WeatherDisplay:10.37,2013-12-13 09:32:00,
2013-12-13 04:37:00,48.2,45.1,30.25,North,350,2.3,2.3,89,0.00,CLR,OVC,0.00,WeatherDisplay:10.37,2013-12-13 09:37:00,
2013-12-13 04:42:00,48.3,45.2,30.25,NW,326,0.0,0.0,89,0.00,CLR,OVC,0.00,WeatherDisplay:10.37,2013-12-13 09:42:00,
2013-12-13 04:47:00,48.4,45.3,30.25,NNE,31,1.1,1.1,89,0.00,CLR,OVC,0.00,WeatherDisplay:10.37,2013-12-13 09:47:00,
2013-12-13 04:52:00,48.3,44.9,30.25,NNW,343,1.1,1.1,88,0.00,CLR,OVC,0.00,WeatherDisplay:10.37,2013-12-13 09:52:00,
2013-12-13 04:57:00,48.4,45.3,30.25,NNE,28,1.1,0.0,89,0.00,CLR,OVC,0.00,WeatherDisplay:10.37,2013-12-13 09:57:00,
2013-12-13 05:02:00,48.3,44.9,30.25,NE,36,1.0,1.0,88,0.00,CLR,OVC,0.00,WeatherDisplay:10.37,2013-12-13 10:02:00,
2013-12-13 05:07:00,48.1,44.7,30.25,NNW,344,0.0,0.0,88,0.00,CLR,OVC,0.00,WeatherDisplay:10.37,2013-12-13 10:07:00,
2013-12-13 05:12:00,47.9,44.5,30.25,NE,46,1.1,1.1,88,0.00,CLR,OVC,0.00,WeatherDisplay:10.37,2013-12-13 10:12:00,
2013-12-13 05:17:00,47.7,44.6,30.24,NNE,21,2.0,2.0,89,0.00,CLR,OVC,0.00,WeatherDisplay:10.37,2013-12-13 10:17:00,
2013-12-13 05:22:00,47.7,44.6,30.24,North,2,1.1,0.0,89,0.00,CLR,OVC,0.00,WeatherDisplay:10.37,2013-12-13 10:22:00,
2013-12-13 05:27:00,47.5,44.4,30.25,North,2,0.0,0.0,89,0.00,CLR,OVC,0.00,WeatherDisplay:10.37,2013-12-13 10:27:00,
2013-12-13 05:32:00,47.1,44.0,30.24,North,2,0.0,0.0,89,0.00,CLR,OVC,0.00,WeatherDisplay:10.37,2013-12-13 10:32:00,
2013-12-13 05:37:00,46.8,43.7,30.25,North,2,0.0,0.0,89,0.00,CLR,OVC,0.00,WeatherDisplay:10.37,2013-12-13 10:37:00,
2013-12-13 05:42:00,46.5,43.4,30.25,North,2,0.0,0.0,89,0.00,CLR,OVC,0.00,WeatherDisplay:10.37,2013-12-13 10:42:00,
2013-12-13 05:47:00,46.5,43.4,30.25,North,350,1.1,1.1,89,0.00,CLR,OVC,0.00,WeatherDisplay:10.37,2013-12-13 10:47:00,
2013-12-13 05:52:00,46.5,43.7,30.25,North,350,1.1,1.1,90,0.00,CLR,OVC,0.00,WeatherDisplay:10.37,2013-12-13 10:52:00,
2013-12-13 05:57:00,46.2,43.4,30.25,North,350,0.0,0.0,90,0.00,CLR,OVC,0.00,WeatherDisplay:10.37,2013-12-13 10:57:00,
2013-12-13 06:02:00,46.2,43.4,30.26,North,350,0.0,0.0,90,0.00,CLR,OVC,0.00,WeatherDisplay:10.37,2013-12-13 11:02:00,
2013-12-13 06:07:00,46.2,43.4,30.26,North,349,1.1,1.1,90,0.00,CLR,OVC,0.00,WeatherDisplay:10.37,2013-12-13 11:07:00,
2013-12-13 06:12:00,46.2,43.4,30.26,North,350,1.1,0.0,90,0.00,CLR,OVC,0.00,WeatherDisplay:10.37,2013-12-13 11:12:00,
2013-12-13 06:17:00,46.4,43.6,30.26,WSW,253,1.1,1.1,90,0.00,CLR,OVC,0.00,WeatherDisplay:10.37,2013-12-13 11:17:00,
2013-12-13 06:22:00,46.4,43.6,30.26,WSW,252,0.0,0.0,90,0.00,CLR,OVC,0.00,WeatherDisplay:10.37,2013-12-13 11:22:00,
2013-12-13 06:27:00,46.3,43.5,30.26,WSW,252,0.0,0.0,90,0.00,CLR,OVC,0.00,WeatherDisplay:10.37,2013-12-13 11:27:00,
2013-12-13 06:32:00,46.1,43.3,30.26,WSW,252,0.0,0.0,90,0.00,CLR,OVC,0.00,WeatherDisplay:10.37,2013-12-13 11:32:00,
2013-12-13 06:37:00,46.1,43.3,30.26,WSW,252,0.0,0.0,90,0.00,CLR,OVC,0.00,WeatherDisplay:10.37,2013-12-13 11:37:00,
2013-12-13 06:42:00,46.0,43.2,30.27,WSW,252,0.0,0.0,90,0.00,CLR,OVC,0.00,WeatherDisplay:10.37,2013-12-13 11:42:00,
2013-12-13 06:47:00,45.8,43.0,30.27,WSW,251,0.0,0.0,90,0.00,CLR,OVC,0.00,WeatherDisplay:10.37,2013-12-13 11:47:00,
2013-12-13 06:52:00,45.9,43.1,30.27,WSW,252,0.0,0.0,90,0.00,CLR,OVC,0.00,WeatherDisplay:10.37,2013-12-13 11:52:00,
2013-12-13 06:57:00,45.8,43.3,30.27,WSW,251,0.0,0.0,91,0.00,CLR,OVC,0.00,WeatherDisplay:10.37,2013-12-13 11:57:00,
2013-12-13 07:02:00,45.7,43.2,30.28,WSW,251,0.0,0.0,91,0.00,CLR,OVC,0.00,WeatherDisplay:10.37,2013-12-13 12:02:00,
2013-12-13 07:07:00,46.0,43.5,30.28,WSW,251,0.0,0.0,91,0.00,CLR,OVC,0.00,WeatherDisplay:10.37,2013-12-13 12:07:00,
2013-12-13 07:12:00,46.2,43.7,30.28,WSW,251,0.0,0.0,91,0.00,CLR,OVC,0.00,WeatherDisplay:10.37,2013-12-13 12:12:00,
2013-12-13 07:17:00,46.6,44.1,30.28,WSW,253,0.0,0.0,91,0.00,CLR,OVC,0.00,WeatherDisplay:10.37,2013-12-13 12:17:00,
2013-12-13 07:22:00,46.6,44.1,30.28,WSW,253,0.0,0.0,91,0.00,CLR,OVC,0.00,WeatherDisplay:10.37,2013-12-13 12:22:00,
2013-12-13 07:24:00,46.6,44.1,30.28,WSW,253,0.0,0.0,91,0.00,CLR,OVC,0.00,WeatherDisplay:10.37,2013-12-13 12:24:00,
2013-12-13 07:29:00,46.8,44.3,30.28,WSW,253,0.0,0.0,91,0.00,CLR,OVC,0.00,WeatherDisplay:10.37,2013-12-13 12:29:00,
2013-12-13 07:34:00,47.0,44.5,30.28,WSW,253,0.0,0.0,91,0.00,CLR,OVC,0.00,WeatherDisplay:10.37,2013-12-13 12:34:00,
2013-12-13 07:39:00,47.4,44.9,30.29,NW,310,1.1,1.1,91,0.00,CLR,OVC,0.00,WeatherDisplay:10.37,2013-12-13 12:39:00,
2013-12-13 07:44:00,48.0,45.5,30.29,NW,323,2.3,2.3,91,0.00,CLR,OVC,0.00,WeatherDisplay:10.37,2013-12-13 12:44:00,
2013-12-13 07:49:00,48.4,46.2,30.29,NW,312,1.1,1.1,92,0.00,CLR,OVC,0.00,WeatherDisplay:10.37,2013-12-13 12:49:00,
2013-12-13 07:54:00,48.9,46.7,30.30,NNW,343,1.1,1.1,92,0.00,CLR,OVC,0.00,WeatherDisplay:10.37,2013-12-13 12:54:00,
2013-12-13 07:59:00,49.5,47.3,30.30,North,11,2.3,0.0,92,0.00,CLR,OVC,0.00,WeatherDisplay:10.37,2013-12-13 12:59:00,
2013-12-13 08:04:00,49.8,47.6,30.30,NNW,340,2.0,2.0,92,0.00,FEW,OVC,0.00,WeatherDisplay:10.37,2013-12-13 13:04:00,
2013-12-13 08:09:00,50.2,47.7,30.30,WNW,288,1.1,1.1,91,0.00,FEW,OVC,0.00,WeatherDisplay:10.37,2013-12-13 13:09:00,
2013-12-13 08:14:00,50.7,48.2,30.30,North,2,1.1,1.1,91,0.00,FEW,OVC,0.00,WeatherDisplay:10.37,2013-12-13 13:14:00,
2013-12-13 08:19:00,51.3,48.8,30.30,North,9,1.1,1.1,91,0.00,FEW,OVC,0.00,WeatherDisplay:10.37,2013-12-13 13:19:00,
2013-12-13 08:24:00,51.8,49.0,30.30,North,355,3.4,3.4,90,0.00,FEW,OVC,0.00,WeatherDisplay:10.37,2013-12-13 13:24:00,
2013-12-13 08:29:00,52.1,49.3,30.30,NNE,23,3.4,3.4,90,0.00,FEW,OVC,0.00,WeatherDisplay:10.37,2013-12-13 13:29:00,
2013-12-13 08:34:00,52.5,49.4,30.30,ESE,109,2.3,2.3,89,0.00,FEW,OVC,0.00,WeatherDisplay:10.37,2013-12-13 13:34:00,
2013-12-13 08:39:00,53.0,49.8,30.30,NNE,28,3.4,3.4,89,0.00,FEW,OVC,0.00,WeatherDisplay:10.37,2013-12-13 13:39:00,
2013-12-13 08:44:00,53.3,49.8,30.31,WSW,255,2.3,2.3,88,0.00,FEW,OVC,0.00,WeatherDisplay:10.37,2013-12-13 13:44:00,
2013-12-13 08:49:00,53.8,50.3,30.31,NNW,346,2.0,2.0,88,0.00,FEW,OVC,0.00,WeatherDisplay:10.37,2013-12-13 13:49:00,
2013-12-13 08:54:00,54.0,50.2,30.31,NNE,31,2.3,2.3,87,0.00,FEW,OVC,0.00,WeatherDisplay:10.37,2013-12-13 13:54:00,
2013-12-13 08:59:00,54.6,50.8,30.31,ENE,74,1.1,1.1,87,0.00,FEW,OVC,0.00,WeatherDisplay:10.37,2013-12-13 13:59:00,
2013-12-13 09:04:00,54.9,51.1,30.31,NNE,28,1.1,1.1,87,0.00,FEW,OVC,0.00,WeatherDisplay:10.37,2013-12-13 14:04:00,
2013-12-13 09:09:00,55.4,51.3,30.31,NNE,12,2.0,2.0,86,0.00,FEW,OVC,0.00,WeatherDisplay:10.37,2013-12-13 14:09:00,
2013-12-13 09:14:00,55.9,51.8,30.31,NNW,336,3.4,3.4,86,0.00,FEW,OVC,0.00,WeatherDisplay:10.37,2013-12-13 14:14:00,
2013-12-13 09:26:00,56.7,52.2,30.31,North,11,2.3,2.3,85,0.00,CLR,OVC,0.00,WeatherDisplay:10.37,2013-12-13 14:26:00,
2013-12-13 09:31:00,57.3,52.8,30.31,NNE,21,3.4,3.4,85,0.00,CLR,OVC,0.00,WeatherDisplay:10.37,2013-12-13 14:31:00,
2013-12-13 09:36:00,57.8,53.0,30.32,NW,320,1.1,1.1,84,0.00,CLR,OVC,0.00,WeatherDisplay:10.37,2013-12-13 14:36:00,
2013-12-13 09:41:00,58.6,53.8,30.32,SE,144,1.1,1.1,84,0.00,CLR,OVC,0.00,WeatherDisplay:10.37,2013-12-13 14:41:00,
2013-12-13 09:46:00,59.4,53.9,30.32,NE,40,3.4,3.4,82,0.00,CLR,OVC,0.00,WeatherDisplay:10.37,2013-12-13 14:46:00,
2013-12-13 09:51:00,60.7,54.8,30.32,North,350,1.1,1.1,81,0.00,CLR,OVC,0.00,WeatherDisplay:10.37,2013-12-13 14:51:00,
2013-12-13 09:56:00,61.6,55.4,30.32,NNW,336,2.3,2.3,80,0.00,CLR,OVC,0.00,WeatherDisplay:10.37,2013-12-13 14:56:00,
2013-12-13 10:01:00,62.5,55.5,30.32,South,178,3.4,3.4,78,0.00,CLR,OVC,0.00,WeatherDisplay:10.37,2013-12-13 15:01:00,
2013-12-13 10:06:00,63.4,55.7,30.32,SE,127,3.4,3.4,76,0.00,CLR,OVC,0.00,WeatherDisplay:10.37,2013-12-13 15:06:00,
2013-12-13 10:11:00,64.4,55.9,30.32,North,2,3.4,3.4,74,0.00,CLR,OVC,0.00,WeatherDisplay:10.37,2013-12-13 15:11:00,
2013-12-13 10:16:00,65.3,56.8,30.32,NNE,21,2.3,2.3,74,0.00,CLR,OVC,0.00,WeatherDisplay:10.37,2013-12-13 15:16:00,
2013-12-13 10:21:00,66.6,56.5,30.32,NNE,23,2.3,2.3,70,0.00,CLR,OVC,0.00,WeatherDisplay:10.37,2013-12-13 15:21:00,
2013-12-13 10:26:00,66.9,56.0,30.32,NNE,31,3.4,3.4,68,0.00,CLR,OVC,0.00,WeatherDisplay:10.37,2013-12-13 15:26:00,
2013-12-13 10:31:00,67.7,57.2,30.31,South,177,3.4,3.4,69,0.00,CLR,OVC,0.00,WeatherDisplay:10.37,2013-12-13 15:31:00,
2013-12-13 10:36:00,68.7,57.3,30.31,NE,35,3.4,3.4,67,0.00,CLR,OVC,0.00,WeatherDisplay:10.37,2013-12-13 15:36:00,
2013-12-13 10:41:00,68.8,57.0,30.31,NE,49,3.4,3.4,66,0.00,CLR,OVC,0.00,WeatherDisplay:10.37,2013-12-13 15:41:00,
2013-12-13 10:46:00,69.6,56.4,30.31,North,8,5.8,5.8,63,0.00,CLR,OVC,0.00,WeatherDisplay:10.37,2013-12-13 15:46:00,
2013-12-13 10:51:00,69.9,56.7,30.31,SSE,168,3.4,3.4,63,0.00,CLR,OVC,0.00,WeatherDisplay:10.37,2013-12-13 15:51:00,
2013-12-13 10:56:00,70.5,57.3,30.31,SSE,155,3.4,3.4,63,0.00,CLR,OVC,0.00,WeatherDisplay:10.37,2013-12-13 15:56:00,
2013-12-13 11:01:00,70.7,56.6,30.31,ESE,111,3.4,3.4,61,0.00,FEW,OVC,0.00,WeatherDisplay:10.37,2013-12-13 16:01:00,
2013-12-13 11:06:00,70.7,57.5,30.30,SE,132,5.0,5.0,63,0.00,FEW,OVC,0.00,WeatherDisplay:10.37,2013-12-13 16:06:00,
2013-12-13 11:11:00,71.1,57.9,30.30,SSE,157,6.9,6.9,63,0.00,FEW,OVC,0.00,WeatherDisplay:10.37,2013-12-13 16:11:00,
2013-12-13 11:16:00,71.6,57.4,30.30,SE,137,3.4,3.4,61,0.00,FEW,OVC,0.00,WeatherDisplay:10.37,2013-12-13 16:16:00,
2013-12-13 11:21:00,72.3,56.7,30.30,South,184,6.9,6.9,58,0.00,FEW,OVC,0.00,WeatherDisplay:10.37,2013-12-13 16:21:00,
2013-12-13 11:26:00,72.9,57.7,30.30,SSE,148,3.4,3.4,59,0.00,FEW,OVC,0.00,WeatherDisplay:10.37,2013-12-13 16:26:00,
2013-12-13 11:31:00,73.1,57.4,30.30,NW,316,3.4,3.4,58,0.00,FEW,OVC,0.00,WeatherDisplay:10.37,2013-12-13 16:31:00,
2013-12-13 11:36:00,73.1,56.5,30.29,ESE,114,5.8,5.8,56,0.00,FEW,OVC,0.00,WeatherDisplay:10.37,2013-12-13 16:36:00,
2013-12-13 11:41:00,72.7,57.1,30.29,SW,226,3.4,3.4,58,0.00,FEW,OVC,0.00,WeatherDisplay:10.37,2013-12-13 16:41:00,
2013-12-13 11:46:00,73.1,57.0,30.28,SW,224,4.6,4.6,57,0.00,FEW,OVC,0.00,WeatherDisplay:10.37,2013-12-13 16:46:00,
2013-12-13 11:51:00,73.5,56.8,30.28,SE,141,5.8,5.8,56,0.00,FEW,OVC,0.00,WeatherDisplay:10.37,2013-12-13 16:51:00,
2013-12-13 11:56:00,72.8,57.6,30.28,ESE,114,6.9,6.9,59,0.00,FEW,OVC,0.00,WeatherDisplay:10.37,2013-12-13 16:56:00,
2013-12-13 12:01:00,72.9,56.8,30.28,SE,132,5.8,5.8,57,0.00,CLR,OVC,0.00,WeatherDisplay:10.37,2013-12-13 17:01:00,
2013-12-13 12:06:00,73.4,56.7,30.27,SSE,166,3.4,3.4,56,0.00,CLR,OVC,0.00,WeatherDisplay:10.37,2013-12-13 17:06:00,
2013-12-13 12:11:00,73.0,55.4,30.27,ESE,112,5.8,5.8,54,0.00,CLR,OVC,0.00,WeatherDisplay:10.37,2013-12-13 17:11:00,
2013-12-13 12:16:00,73.2,56.1,30.27,SSE,154,4.6,4.6,55,0.00,CLR,OVC,0.00,WeatherDisplay:10.37,2013-12-13 17:16:00,
2013-12-13 12:21:00,73.9,57.7,30.26,ESE,116,4.0,4.0,57,0.00,CLR,OVC,0.00,WeatherDisplay:10.37,2013-12-13 17:21:00,
2013-12-13 12:26:00,73.8,55.6,30.26,SE,134,6.9,6.9,53,0.00,CLR,OVC,0.00,WeatherDisplay:10.37,2013-12-13 17:26:00,
2013-12-13 12:31:00,74.0,56.8,30.26,NW,305,3.4,3.4,55,0.00,CLR,OVC,0.00,WeatherDisplay:10.37,2013-12-13 17:31:00,
2013-12-13 12:36:00,74.1,56.9,30.26,ESE,111,5.0,5.0,55,0.00,CLR,OVC,0.00,WeatherDisplay:10.37,2013-12-13 17:36:00,
2013-12-13 12:41:00,73.1,55.5,30.25,ESE,102,5.8,5.8,54,0.00,CLR,OVC,0.00,WeatherDisplay:10.37,2013-12-13 17:41:00,
2013-12-13 12:46:00,72.5,55.9,30.25,SE,138,3.4,3.4,56,0.00,CLR,OVC,0.00,WeatherDisplay:10.37,2013-12-13 17:46:00,
2013-12-13 12:51:00,72.6,55.5,30.25,South,177,3.4,3.4,55,0.00,CLR,OVC,0.00,WeatherDisplay:10.37,2013-12-13 17:51:00,
2013-12-13 12:56:00,72.9,55.3,30.24,SE,137,9.0,9.0,54,0.00,CLR,OVC,0.00,WeatherDisplay:10.37,2013-12-13 17:56:00,
2013-12-13 13:01:00,73.6,54.9,30.24,ESE,118,8.1,8.1,52,0.00,CLR,OVC,0.00,WeatherDisplay:10.37,2013-12-13 18:01:00,
2013-12-13 13:06:00,73.5,55.3,30.24,SE,124,6.9,6.9,53,0.00,CLR,OVC,0.00,WeatherDisplay:10.37,2013-12-13 18:06:00,
2013-12-13 13:11:00,74.1,56.4,30.24,ESE,123,4.0,4.0,54,0.00,CLR,OVC,0.00,WeatherDisplay:10.37,2013-12-13 18:11:00,
2013-12-13 13:16:00,74.8,55.5,30.23,ESE,114,3.4,3.4,51,0.00,FEW,OVC,0.00,WeatherDisplay:10.37,2013-12-13 18:16:00,
2013-12-13 13:21:00,74.5,55.7,30.23,ESE,104,5.8,5.8,52,0.00,FEW,OVC,0.00,WeatherDisplay:10.37,2013-12-13 18:21:00,
2013-12-13 13:26:00,73.8,55.6,30.23,ESE,118,5.0,5.0,53,0.00,FEW,OVC,0.00,WeatherDisplay:10.37,2013-12-13 18:26:00,
2013-12-13 13:31:00,73.9,54.1,30.22,SSE,154,9.2,9.2,50,0.00,FEW,OVC,0.00,WeatherDisplay:10.37,2013-12-13 18:31:00,
2013-12-13 13:36:00,74.0,54.7,30.22,ESE,107,2.3,2.3,51,0.00,FEW,OVC,0.00,WeatherDisplay:10.37,2013-12-13 18:36:00,
2013-12-13 13:41:00,74.3,56.1,30.22,SE,130,11.5,11.5,53,0.00,FEW,OVC,0.00,WeatherDisplay:10.37,2013-12-13 18:41:00,
2013-12-13 13:46:00,75.0,54.5,30.21,NNE,25,9.2,9.2,49,0.00,FEW,OVC,0.00,WeatherDisplay:10.37,2013-12-13 18:46:00,
2013-12-13 13:51:00,75.5,55.0,30.21,South,173,5.8,5.8,49,0.00,FEW,OVC,0.00,WeatherDisplay:10.37,2013-12-13 18:51:00,
2013-12-13 13:56:00,75.8,55.3,30.21,SSE,168,3.4,3.4,49,0.00,FEW,OVC,0.00,WeatherDisplay:10.37,2013-12-13 18:56:00,
2013-12-13 14:01:00,75.0,52.8,30.20,ESE,116,5.8,5.8,46,0.00,CLR,OVC,0.00,WeatherDisplay:10.37,2013-12-13 19:01:00,
2013-12-13 14:06:00,74.4,54.0,30.20,ESE,114,6.9,6.9,49,0.00,CLR,OVC,0.00,WeatherDisplay:10.37,2013-12-13 19:06:00,
2013-12-13 14:11:00,73.1,53.9,30.20,NE,35,4.6,4.6,51,0.00,CLR,OVC,0.00,WeatherDisplay:10.37,2013-12-13 19:11:00,
2013-12-13 14:16:00,72.2,54.1,30.20,ESE,118,7.0,7.0,53,0.00,CLR,OVC,0.00,WeatherDisplay:10.37,2013-12-13 19:16:00,
2013-12-13 14:21:00,71.8,54.8,30.20,SE,144,3.4,3.4,55,0.00,CLR,OVC,0.00,WeatherDisplay:10.37,2013-12-13 19:21:00,
2013-12-13 14:26:00,72.3,54.7,30.20,NNE,28,6.9,6.9,54,0.00,CLR,OVC,0.00,WeatherDisplay:10.37,2013-12-13 19:26:00,
2013-12-13 14:31:00,72.7,54.6,30.20,SE,132,6.9,6.9,53,0.00,CLR,OVC,0.00,WeatherDisplay:10.37,2013-12-13 19:31:00,
2013-12-13 14:36:00,72.8,54.7,30.20,NW,323,6.9,6.9,53,0.00,CLR,OVC,0.00,WeatherDisplay:10.37,2013-12-13 19:36:00,
2013-12-13 14:41:00,72.9,53.7,30.20,SSE,157,10.3,10.3,51,0.00,CLR,OVC,0.00,WeatherDisplay:10.37,2013-12-13 19:41:00,
2013-12-13 14:46:00,72.7,53.5,30.20,SE,142,8.1,8.1,51,0.00,CLR,OVC,0.00,WeatherDisplay:10.37,2013-12-13 19:46:00,
2013-12-13 14:51:00,72.7,53.5,30.19,SSE,147,4.6,4.6,51,0.00,CLR,OVC,0.00,WeatherDisplay:10.37,2013-12-13 19:51:00,
2013-12-13 14:56:00,72.4,53.8,30.19,SE,128,3.4,3.4,52,0.00,CLR,OVC,0.00,WeatherDisplay:10.37,2013-12-13 19:56:00,
2013-12-13 15:01:00,72.7,54.1,30.18,SE,124,4.6,4.6,52,0.00,FEW,OVC,0.00,WeatherDisplay:10.37,2013-12-13 20:01:00,
2013-12-13 15:06:00,72.8,54.1,30.18,SE,137,8.1,8.1,52,0.00,FEW,OVC,0.00,WeatherDisplay:10.37,2013-12-13 20:06:00,
2013-12-13 15:11:00,73.0,54.9,30.18,ESE,120,6.9,6.9,53,0.00,FEW,OVC,0.00,WeatherDisplay:10.37,2013-12-13 20:11:00,
2013-12-13 15:16:00,72.9,55.3,30.18,SE,127,6.9,6.9,54,0.00,FEW,OVC,0.00,WeatherDisplay:10.37,2013-12-13 20:16:00,
2013-12-13 15:21:00,72.1,55.0,30.17,SSE,159,7.0,7.0,55,0.00,FEW,OVC,0.00,WeatherDisplay:10.37,2013-12-13 20:21:00,
2013-12-13 15:26:00,71.8,55.3,30.17,NE,48,9.2,9.2,56,0.00,FEW,OVC,0.00,WeatherDisplay:10.37,2013-12-13 20:26:00,
2013-12-13 15:31:00,72.0,55.9,30.17,SSE,153,5.0,5.0,57,0.00,FEW,OVC,0.00,WeatherDisplay:10.37,2013-12-13 20:31:00,
2013-12-13 15:36:00,71.8,55.7,30.17,North,357,11.5,11.5,57,0.00,FEW,OVC,0.00,WeatherDisplay:10.37,2013-12-13 20:36:00,
2013-12-13 15:41:00,71.8,56.2,30.17,SE,132,7.0,7.0,58,0.00,FEW,OVC,0.00,WeatherDisplay:10.37,2013-12-13 20:41:00,
2013-12-13 15:46:00,71.3,55.3,30.17,SE,135,4.6,4.6,57,0.00,FEW,OVC,0.00,WeatherDisplay:10.37,2013-12-13 20:46:00,
2013-12-13 15:51:00,70.8,55.8,30.17,North,351,3.4,3.4,59,0.00,FEW,OVC,0.00,WeatherDisplay:10.37,2013-12-13 20:51:00,
2013-12-13 15:56:00,70.7,56.1,30.17,ENE,64,4.6,4.6,60,0.00,FEW,OVC,0.00,WeatherDisplay:10.37,2013-12-13 20:56:00,
2013-12-13 16:01:00,70.6,55.6,30.18,NE,40,9.2,9.2,59,0.00,CLR,OVC,0.00,WeatherDisplay:10.37,2013-12-13 21:01:00,
2013-12-13 16:06:00,70.6,55.6,30.18,ESE,111,5.8,5.8,59,0.00,CLR,OVC,0.00,WeatherDisplay:10.37,2013-12-13 21:06:00,
2013-12-13 16:11:00,70.3,55.3,30.18,ESE,120,5.8,5.8,59,0.00,CLR,OVC,0.00,WeatherDisplay:10.37,2013-12-13 21:11:00,
2013-12-13 16:16:00,70.0,55.0,30.18,ESE,121,10.3,10.3,59,0.00,CLR,OVC,0.00,WeatherDisplay:10.37,2013-12-13 21:16:00,
2013-12-13 16:21:00,70.1,55.1,30.17,SSE,155,3.4,3.4,59,0.00,CLR,OVC,0.00,WeatherDisplay:10.37,2013-12-13 21:21:00,
2013-12-13 16:26:00,70.3,55.3,30.17,ESE,102,4.6,4.6,59,0.00,CLR,OVC,0.00,WeatherDisplay:10.37,2013-12-13 21:26:00,
2013-12-13 16:31:00,70.4,55.8,30.18,SE,127,3.4,3.4,60,0.00,CLR,OVC,0.00,WeatherDisplay:10.37,2013-12-13 21:31:00,
2013-12-13 16:36:00,70.4,55.4,30.18,South,178,3.4,3.4,59,0.00,CLR,OVC,0.00,WeatherDisplay:10.37,2013-12-13 21:36:00,
2013-12-13 16:41:00,70.3,55.3,30.18,SSE,148,8.1,8.1,59,0.00,CLR,OVC,0.00,WeatherDisplay:10.37,2013-12-13 21:41:00,
2013-12-13 16:46:00,70.0,55.5,30.18,East,99,3.4,3.4,60,0.00,CLR,OVC,0.00,WeatherDisplay:10.37,2013-12-13 21:46:00,
2013-12-13 16:51:00,69.6,55.6,30.18,ENE,75,3.4,3.4,61,0.00,CLR,OVC,0.00,WeatherDisplay:10.37,2013-12-13 21:51:00,
2013-12-13 16:56:00,69.0,55.4,30.18,ESE,112,3.4,3.4,62,0.00,CLR,OVC,0.00,WeatherDisplay:10.37,2013-12-13 21:56:00,
2013-12-13 17:01:00,68.6,55.5,30.19,NE,36,5.8,5.8,63,0.00,CLR,OVC,0.00,WeatherDisplay:10.37,2013-12-13 22:01:00,
2013-12-13 17:06:00,68.4,55.7,30.19,SE,131,3.4,3.4,64,0.00,CLR,OVC,0.00,WeatherDisplay:10.37,2013-12-13 22:06:00,
2013-12-13 17:11:00,68.2,56.0,30.18,North,354,3.4,3.4,65,0.00,CLR,OVC,0.00,WeatherDisplay:10.37,2013-12-13 22:11:00,
2013-12-13 17:16:00,67.9,55.7,30.18,SE,134,2.3,2.3,65,0.00,CLR,OVC,0.00,WeatherDisplay:10.37,2013-12-13 22:16:00,
2013-12-13 17:21:00,67.6,55.8,30.18,SE,135,5.8,5.8,66,0.00,CLR,OVC,0.00,WeatherDisplay:10.37,2013-12-13 22:21:00,
2013-12-13 17:26:00,67.3,55.5,30.17,SE,144,1.1,1.1,66,0.00,CLR,OVC,0.00,WeatherDisplay:10.37,2013-12-13 22:26:00,
2013-12-13 17:31:00,66.9,55.2,30.18,ESE,102,2.3,2.3,66,0.00,CLR,OVC,0.00,WeatherDisplay:10.37,2013-12-13 22:31:00,
2013-12-13 17:36:00,66.6,54.9,30.18,East,91,4.6,4.6,66,0.00,CLR,OVC,0.00,WeatherDisplay:10.37,2013-12-13 22:36:00,
2013-12-13 17:41:00,66.3,55.0,30.18,SE,132,4.6,4.6,67,0.00,CLR,OVC,0.00,WeatherDisplay:10.37,2013-12-13 22:41:00,
2013-12-13 17:46:00,66.1,54.8,30.18,SE,127,1.1,1.1,67,0.00,CLR,OVC,0.00,WeatherDisplay:10.37,2013-12-13 22:46:00,
2013-12-13 17:51:00,65.8,54.9,30.18,SE,127,0.0,0.0,68,0.00,CLR,OVC,0.00,WeatherDisplay:10.37,2013-12-13 22:51:00,
2013-12-13 17:56:00,65.4,55.0,30.19,ESE,113,1.1,1.1,69,0.00,CLR,OVC,0.00,WeatherDisplay:10.37,2013-12-13 22:56:00,
2013-12-13 18:01:00,64.9,54.5,30.19,ESE,113,1.1,1.1,69,0.00,CLR,OVC,0.00,WeatherDisplay:10.37,2013-12-13 23:01:00,
2013-12-13 18:06:00,64.3,54.7,30.19,NNE,14,1.1,0.0,71,0.00,CLR,OVC,0.00,WeatherDisplay:10.37,2013-12-13 23:06:00,
2013-12-13 18:11:00,63.8,54.6,30.19,NNE,13,1.1,0.0,72,0.00,CLR,OVC,0.00,WeatherDisplay:10.37,2013-12-13 23:11:00,
2013-12-13 18:16:00,63.3,54.5,30.19,NNE,13,0.0,0.0,73,0.00,CLR,OVC,0.00,WeatherDisplay:10.37,2013-12-13 23:16:00,
2013-12-13 18:21:00,62.8,54.0,30.18,NNE,13,0.0,0.0,73,0.00,CLR,OVC,0.00,WeatherDisplay:10.37,2013-12-13 23:21:00,
2013-12-13 18:26:00,62.1,53.7,30.18,NNE,13,0.0,0.0,74,0.00,CLR,OVC,0.00,WeatherDisplay:10.37,2013-12-13 23:26:00,
2013-12-13 18:31:00,61.6,54.0,30.18,NNE,18,0.0,0.0,76,0.00,CLR,OVC,0.00,WeatherDisplay:10.37,2013-12-13 23:31:00,
2013-12-13 18:36:00,61.1,53.8,30.17,NNE,18,0.0,0.0,77,0.00,CLR,OVC,0.00,WeatherDisplay:10.37,2013-12-13 23:36:00,
2013-12-13 18:41:00,60.6,53.7,30.18,NNE,18,0.0,0.0,78,0.00,CLR,OVC,0.00,WeatherDisplay:10.37,2013-12-13 23:41:00,
2013-12-13 18:46:00,60.1,53.2,30.18,NNE,18,0.0,0.0,78,0.00,CLR,OVC,0.00,WeatherDisplay:10.37,2013-12-13 23:46:00,
2013-12-13 18:51:00,59.5,53.0,30.19,NNE,18,0.0,0.0,79,0.00,CLR,OVC,0.00,WeatherDisplay:10.37,2013-12-13 23:51:00,
2013-12-13 18:56:00,59.2,53.4,30.19,NNE,18,1.1,0.0,81,0.00,CLR,OVC,0.00,WeatherDisplay:10.37,2013-12-13 23:56:00,
2013-12-13 19:01:00,59.2,53.4,30.19,NNE,18,0.0,0.0,81,0.00,CLR,OVC,0.00,WeatherDisplay:10.37,2013-12-14 00:01:00,
2013-12-13 19:06:00,58.9,53.1,30.20,NNE,18,0.0,0.0,81,0.00,CLR,OVC,0.00,WeatherDisplay:10.37,2013-12-14 00:06:00,
2013-12-13 19:11:00,58.5,52.7,30.20,NNE,18,0.0,0.0,81,0.00,CLR,OVC,0.00,WeatherDisplay:10.37,2013-12-14 00:11:00,
2013-12-13 19:16:00,58.1,52.6,30.19,NNE,18,1.1,0.0,82,0.00,CLR,OVC,0.00,WeatherDisplay:10.37,2013-12-14 00:16:00,
2013-12-13 19:21:00,57.9,52.8,30.19,NNE,18,0.0,0.0,83,0.00,CLR,OVC,0.00,WeatherDisplay:10.37,2013-12-14 00:21:00,
2013-12-13 19:26:00,57.7,52.6,30.18,NNE,18,0.0,0.0,83,0.00,CLR,OVC,0.00,WeatherDisplay:10.37,2013-12-14 00:26:00,
2013-12-13 19:31:00,57.4,52.3,30.18,NNE,18,0.0,0.0,83,0.00,CLR,OVC,0.00,WeatherDisplay:10.37,2013-12-14 00:31:00,
2013-12-13 19:36:00,57.0,52.2,30.18,NNE,18,1.1,1.1,84,0.00,CLR,OVC,0.00,WeatherDisplay:10.37,2013-12-14 00:36:00,
2013-12-13 19:41:00,56.8,52.0,30.18,NNE,18,0.0,0.0,84,0.00,CLR,OVC,0.00,WeatherDisplay:10.37,2013-12-14 00:41:00,
2013-12-13 19:46:00,56.4,51.6,30.19,NNE,17,0.0,0.0,84,0.00,CLR,OVC,0.00,WeatherDisplay:10.37,2013-12-14 00:46:00,
2013-12-13 19:51:00,56.0,51.6,30.19,NNE,18,0.0,0.0,85,0.00,CLR,OVC,0.00,WeatherDisplay:10.37,2013-12-14 00:51:00,
2013-12-13 19:56:00,55.7,51.3,30.19,NNE,17,0.0,0.0,85,0.00,CLR,OVC,0.00,WeatherDisplay:10.37,2013-12-14 00:56:00,
2013-12-13 20:01:00,55.5,51.4,30.19,NNE,18,0.0,0.0,86,0.00,CLR,OVC,0.00,WeatherDisplay:10.37,2013-12-14 01:01:00,
2013-12-13 20:06:00,55.8,52.0,30.19,NNE,18,0.0,0.0,87,0.00,CLR,OVC,0.00,WeatherDisplay:10.37,2013-12-14 01:06:00,
2013-12-13 20:11:00,56.0,51.9,30.19,NNE,18,0.0,0.0,86,0.00,CLR,OVC,0.00,WeatherDisplay:10.37,2013-12-14 01:11:00,
2013-12-13 20:13:00,56.1,52.0,30.19,NNE,17,0.0,0.0,86,0.00,CLR,OVC,0.00,WeatherDisplay:10.37,2013-12-14 01:13:00,
2013-12-13 20:18:00,56.3,52.2,30.19,NNE,24,0.0,0.0,86,0.00,CLR,OVC,0.00,WeatherDisplay:10.37,2013-12-14 01:18:00,
2013-12-13 20:23:00,56.3,52.2,30.19,NNE,25,0.0,0.0,86,0.00,CLR,OVC,0.00,WeatherDisplay:10.37,2013-12-14 01:23:00,
2013-12-13 20:28:00,56.4,52.6,30.19,NNE,25,0.0,0.0,87,0.00,CLR,OVC,0.00,WeatherDisplay:10.37,2013-12-14 01:28:00,
2013-12-13 20:33:00,56.3,52.5,30.19,NNE,25,0.0,0.0,87,0.00,CLR,OVC,0.00,WeatherDisplay:10.37,2013-12-14 01:33:00,
2013-12-13 20:38:00,56.0,52.2,30.19,NNE,25,0.0,0.0,87,0.00,CLR,OVC,0.00,WeatherDisplay:10.37,2013-12-14 01:38:00,
2013-12-13 20:43:00,55.8,52.0,30.19,NNE,25,0.0,0.0,87,0.00,CLR,OVC,0.00,WeatherDisplay:10.37,2013-12-14 01:43:00,
2013-12-13 20:48:00,55.7,51.9,30.19,NE,45,0.0,0.0,87,0.00,CLR,OVC,0.00,WeatherDisplay:10.37,2013-12-14 01:48:00,
2013-12-13 20:53:00,55.8,52.0,30.19,ENE,77,0.0,0.0,87,0.00,CLR,OVC,0.00,WeatherDisplay:10.37,2013-12-14 01:53:00,
2013-12-13 20:58:00,56.0,52.2,30.19,ENE,76,0.0,0.0,87,0.00,CLR,OVC,0.00,WeatherDisplay:10.37,2013-12-14 01:58:00,
2013-12-13 21:03:00,56.0,52.2,30.19,ENE,77,0.0,0.0,87,0.00,CLR,OVC,0.00,WeatherDisplay:10.37,2013-12-14 02:03:00,
2013-12-13 21:08:00,56.0,52.2,30.20,ENE,75,0.0,0.0,87,0.00,CLR,OVC,0.00,WeatherDisplay:10.37,2013-12-14 02:08:00,
2013-12-13 21:13:00,55.8,52.0,30.20,ENE,77,0.0,0.0,87,0.00,CLR,OVC,0.00,WeatherDisplay:10.37,2013-12-14 02:13:00,
2013-12-13 21:18:00,56.0,52.2,30.19,ENE,76,0.0,0.0,87,0.00,CLR,OVC,0.00,WeatherDisplay:10.37,2013-12-14 02:18:00,
2013-12-13 21:23:00,56.1,52.3,30.20,ENE,75,0.0,0.0,87,0.00,CLR,OVC,0.00,WeatherDisplay:10.37,2013-12-14 02:23:00,
2013-12-13 21:28:00,56.0,52.2,30.20,ENE,77,0.0,0.0,87,0.00,CLR,OVC,0.00,WeatherDisplay:10.37,2013-12-14 02:28:00,
2013-12-13 21:33:00,55.8,52.0,30.20,ENE,77,0.0,0.0,87,0.00,CLR,OVC,0.00,WeatherDisplay:10.37,2013-12-14 02:33:00,
2013-12-13 21:38:00,55.7,51.9,30.20,ENE,77,0.0,0.0,87,0.00,CLR,OVC,0.00,WeatherDisplay:10.37,2013-12-14 02:38:00,
2013-12-13 21:43:00,55.9,52.1,30.19,ENE,77,0.0,0.0,87,0.00,CLR,OVC,0.00,WeatherDisplay:10.37,2013-12-14 02:43:00,
2013-12-13 21:48:00,56.2,52.4,30.19,ESE,118,3.4,3.4,87,0.00,CLR,OVC,0.00,WeatherDisplay:10.37,2013-12-14 02:48:00,
2013-12-13 21:53:00,56.9,53.1,30.18,SSE,161,1.1,1.1,87,0.00,CLR,OVC,0.00,WeatherDisplay:10.37,2013-12-14 02:53:00,
2013-12-13 21:58:00,56.8,52.7,30.18,SSE,161,1.1,0.0,86,0.00,CLR,OVC,0.00,WeatherDisplay:10.37,2013-12-14 02:58:00,
2013-12-13 22:03:00,56.6,52.5,30.18,SSE,161,1.1,1.1,86,0.00,CLR,OVC,0.00,WeatherDisplay:10.37,2013-12-14 03:03:00,
2013-12-13 22:08:00,56.5,52.4,30.18,SSE,162,0.0,0.0,86,0.00,CLR,OVC,0.00,WeatherDisplay:10.37,2013-12-14 03:08:00,
2013-12-13 22:13:00,56.1,52.0,30.18,SSE,162,0.0,0.0,86,0.00,CLR,OVC,0.00,WeatherDisplay:10.37,2013-12-14 03:13:00,
2013-12-13 22:18:00,56.0,52.2,30.18,SSE,161,1.1,0.0,87,0.00,CLR,OVC,0.00,WeatherDisplay:10.37,2013-12-14 03:18:00,
2013-12-13 22:23:00,56.1,52.3,30.18,SSE,161,0.0,0.0,87,0.00,CLR,OVC,0.00,WeatherDisplay:10.37,2013-12-14 03:23:00,
2013-12-13 22:28:00,56.0,52.2,30.18,SSE,161,0.0,0.0,87,0.00,CLR,OVC,0.00,WeatherDisplay:10.37,2013-12-14 03:28:00,
2013-12-13 22:33:00,55.7,51.9,30.18,SSE,162,0.0,0.0,87,0.00,CLR,OVC,0.00,WeatherDisplay:10.37,2013-12-14 03:33:00,
2013-12-13 22:38:00,55.5,51.7,30.18,SSE,161,0.0,0.0,87,0.00,CLR,OVC,0.00,WeatherDisplay:10.37,2013-12-14 03:38:00,
2013-12-13 22:43:00,55.3,51.8,30.18,SSE,162,0.0,0.0,88,0.00,CLR,OVC,0.00,WeatherDisplay:10.37,2013-12-14 03:43:00,
2013-12-13 22:48:00,55.2,51.7,30.18,SSE,161,0.0,0.0,88,0.00,CLR,OVC,0.00,WeatherDisplay:10.37,2013-12-14 03:48:00,
2013-12-13 22:53:00,55.0,51.5,30.18,SSE,162,0.0,0.0,88,0.00,CLR,OVC,0.00,WeatherDisplay:10.37,2013-12-14 03:53:00,
2013-12-13 22:58:00,54.9,51.4,30.17,SSE,162,0.0,0.0,88,0.00,CLR,OVC,0.00,WeatherDisplay:10.37,2013-12-14 03:58:00,
2013-12-13 23:03:00,54.9,51.7,30.17,SSE,162,0.0,0.0,89,0.00,BKN,OVC,0.00,WeatherDisplay:10.37,2013-12-14 04:03:00,
2013-12-13 23:08:00,54.5,51.0,30.17,SSE,162,0.0,0.0,88,0.00,BKN,OVC,0.00,WeatherDisplay:10.37,2013-12-14 04:08:00,
2013-12-13 23:13:00,54.1,50.6,30.17,SSE,162,1.1,1.1,88,0.00,BKN,OVC,0.00,WeatherDisplay:10.37,2013-12-14 04:13:00,
2013-12-13 23:18:00,54.1,50.9,30.17,SSE,162,1.1,1.1,89,0.00,BKN,OVC,0.00,WeatherDisplay:10.37,2013-12-14 04:18:00,
2013-12-13 23:23:00,54.0,50.8,30.17,SSE,162,0.0,0.0,89,0.00,BKN,OVC,0.00,WeatherDisplay:10.37,2013-12-14 04:23:00,
2013-12-13 23:28:00,53.7,50.5,30.17,SSE,161,0.0,0.0,89,0.00,BKN,OVC,0.00,WeatherDisplay:10.37,2013-12-14 04:28:00,
2013-12-13 23:33:00,53.6,50.4,30.17,SSE,162,0.0,0.0,89,0.00,BKN,OVC,0.00,WeatherDisplay:10.37,2013-12-14 04:33:00,
2013-12-13 23:38:00,53.6,50.4,30.17,SSE,161,0.0,0.0,89,0.00,BKN,OVC,0.00,WeatherDisplay:10.37,2013-12-14 04:38:00,
2013-12-13 23:43:00,53.5,50.3,30.17,SSE,161,0.0,0.0,89,0.00,BKN,OVC,0.00,WeatherDisplay:10.37,2013-12-14 04:43:00,
2013-12-13 23:48:00,53.4,50.2,30.17,SSE,161,0.0,0.0,89,0.00,BKN,OVC,0.00,WeatherDisplay:10.37,2013-12-14 04:48:00,
2013-12-13 23:53:00,53.3,50.1,30.17,SSE,161,0.0,0.0,89,0.00,BKN,OVC,0.00,WeatherDisplay:10.37,2013-12-14 04:53:00,
2013-12-13 23:58:00,53.2,50.0,30.16,SSE,162,0.0,0.0,89,0.00,BKN,OVC,0.00,WeatherDisplay:10.37,2013-12-14 04:58:00,